sat.trackr.live / text

‹ back to catalog

LEMUR-2-TARTIFLETTE

NORAD 66784 · 2025-276DY

PAYLOAD ACTIVE UNKNOWN

§ Identity

Operator
Country
US
Launch date
2025-11-28
Launch site
AFWTR
Launch vehicle
Mass (kg)
RCS (m²)

Purposes: earth_obs

External: N2YO · Heavens-Above · Gunter

§ Orbital elements

Epoch: 2026-09-19T23:49:08.688288Z

Period
96.01 min
Inclination
97.5141°
Eccentricity
0.0015796
Mean motion
14.99861964 rev/d
Perigee alt
556.4 km
Apogee alt
578.3 km
Semi-major
6,945.5 km
B*
2.5312e-4
RAAN
330.4104°
Arg perigee
172.0975°
Mean anomaly
188.0501°
Rev number
4,440

§ Raw data

LEMUR-2-TARTIFLETTE1 66784U 25276DY  26262.99246167  .00003087  00000+0  25312-3 0  99982 66784  97.5141 330.4104 0015796 172.0975 188.0501 14.99861964 44406

JSON: /api/v1/satellites/66784 · /tle

For live sub-satellite position, see the globe view (requires WebGL).

§ Visibility from observer

Set your observer location to see the next 7 days of passes ≥ 10°. The values pass through the URL so the page stays shareable.

No JS? Fill the form by hand. The geolocation button needs JavaScript.